Flag for U.S.A. Weather past 2 weeks in San Diego, California, U.S.A.

Now
61 °F

Clear.


Feels Like: 61 °F
Forecast: 63 / 80 °F
Wind: No wind

Location: San Diego - North Island

Current Time: Mar 27, 2015 at 4:57:37 AM

Latest Report: Mar 27, 2015 at 3:52 AM


Visibility: 8 mi

Pressure: 30.02 "Hg

Humidity: 90%

Dew point: 58 °F

Location of San DiegoLocation

Historic Weather in San Diego — Graph

°F

San Diego temperature yesterday

Maximum temperature yesterday: 81 °F (at 3:52 PM)
Minimum temperature yesterday: 57 °F (at 5:52 AM)
Average temperature yesterday: 70 °F

Past Weeks' High & Low Weather Summary

 TemperatureHumidityPressure
High89 °F (Mar 14, 12:52 PM)94% (Mar 17, 6:52 PM)30.19 "Hg (Mar 17, 6:52 PM)
Low53 °F (Mar 24, 6:52 AM)16% (Mar 14, 12:52 PM)29.86 "Hg (Mar 16, 4:52 PM)
Average66 °F64%30.02 "Hg
* Reported Mar 12 3:52 AM — Mar 27 3:52 AM, San Diego, Weather by CustomWeather, © 2015

Note: Actual official high and low records may vary slightly from our data, if they occured in-between our weather recording intervals... More about our weather records

Advertising

San Diego weather history for previous 24 hours

 ConditionsComfort  
Time TempWeatherWind HumidityBarometerVisibility
3:52 AM
Fri, Mar 27
61 °FClear.No wind90%30.02 "Hg8 mi
2:52 AM62 °FClear.No wind86%30.03 "Hg9 mi
1:52 AM61 °FClear.No wind75%30.03 "Hg9 mi
12:52 AM66 °FClear.3 mph65%30.03 "Hg10 mi
11:52 PM
Thu, Mar 26
69 °FClear.No wind57%30.03 "Hg10 mi
10:52 PM71 °FClear.9 mph49%30.03 "Hg10 mi
9:52 PM70 °FPassing clouds.8 mph51%30.03 "Hg10 mi
8:52 PM72 °FPassing clouds.8 mph40%30.01 "Hg10 mi
7:52 PM73 °FPassing clouds.10 mph38%30.00 "Hg10 mi
6:52 PM73 °FPassing clouds.13 mph46%29.98 "Hg10 mi
5:52 PM74 °FPassing clouds.16 mph50%29.97 "Hg10 mi
4:52 PM77 °FSunny.15 mph39%29.97 "Hg10 mi
3:52 PM81 °FSunny.16 mph26%29.97 "Hg10 mi
2:52 PM80 °FPassing clouds.13 mph27%29.98 "Hg10 mi
1:52 PM79 °FPassing clouds.9 mph32%30.02 "Hg10 mi
12:52 PM79 °FSunny.10 mph30%30.04 "Hg10 mi
11:52 AM78 °FSunny.5 mph32%30.05 "Hg10 mi
10:52 AM77 °FSunny.No wind24%30.06 "Hg10 mi
9:52 AM70 °FPassing clouds.6 mph39%30.07 "Hg10 mi
8:52 AM67 °FPassing clouds.No wind47%30.06 "Hg10 mi
7:52 AM62 °FSunny.No wind75%30.05 "Hg10 mi
6:52 AM58 °FClear.No wind81%30.04 "Hg10 mi
5:52 AM57 °FClear.No wind81%30.03 "Hg10 mi
4:52 AM59 °FClear.3 mph75%30.02 "Hg10 mi
Weather by CustomWeather, © 2015

See weather overviewHow to use our weather pages